Sigfox identifier Datetime Temperature Humidity SNR
003939C4 2018-10-09 08:35:20 21.2 37 16.8
003939C4 2018-10-09 07:30:07 21.2 36 17.3
003939C4 2018-10-09 06:24:55 21.2 36 17.3
003939C4 2018-10-09 05:19:42 21.2 36 17.4
003939C4 2018-10-09 02:04:07 21.1 36 17.3
003939C4 2018-10-09 00:58:57 21.1 36 17.3
003939C4 2018-10-08 23:53:45 21.1 36 17.8
003939C4 2018-10-08 22:48:37 21.1 36 18
003939C4 2018-10-08 21:43:23 21 36 17.9
003939C4 2018-10-08 20:38:12 21 36 18.3
003939C4 2018-10-08 19:33:03 21 36 18.3
003939C4 2018-10-08 18:27:52 21 35 18.2
003939C4 2018-10-08 17:22:45 20.8 35 18.5
003939C4 2018-10-08 16:17:33 20.8 35 18.4
003939C4 2018-10-08 15:12:24 20.8 35 18.3
003939C4 2018-10-08 14:07:12 20.8 35 18
003939C4 2018-10-08 13:02:05 20.7 35 18
003939C4 2018-10-08 11:56:55 20.6 35 18.1
003939C4 2018-10-08 10:51:46 20.6 35 18.1
003939C4 2018-10-08 09:46:44 20.6 35 18.3
003939C4 2018-10-08 08:41:33 20.6 35 18.2
003939C4 2018-10-08 07:36:29 20.6 36 18.2
003939C4 2018-10-08 06:31:20 20.6 36 18.8
003939C4 2018-10-08 05:26:12 20.6 36 18.8
003939C4 2018-10-08 04:21:04 20.7 36 18.3
003939C4 2018-10-08 03:15:57 20.7 36 18.3
003939C4 2018-10-08 02:10:49 20.8 37 18.1
003939C4 2018-10-08 01:05:41 20.8 37 18.2
003939C4 2018-10-08 00:00:31 20.8 37 18.7
003939C4 2018-10-07 22:55:20 20.8 37 19.1
003939C4 2018-10-07 21:50:08 20.8 37 19.1
003939C4 2018-10-07 20:44:57 20.8 37 18.8
003939C4 2018-10-07 19:39:45 20.8 38 18.5
003939C4 2018-10-07 18:34:34 20.8 38 18.6
003939C4 2018-10-07 17:29:22 20.8 38 18.4
003939C4 2018-10-07 16:24:11 20.8 38 18.4
003939C4 2018-10-07 15:19:01 20.8 38 18.4
003939C4 2018-10-07 14:13:51 20.8 38 17.9
003939C4 2018-10-07 13:08:41 20.9 38 18.1
003939C4 2018-10-07 12:03:31 20.8 38 18.7
003939C4 2018-10-07 10:58:20 20.9 38 19
003939C4 2018-10-07 09:53:15 20.9 38 19.2
003939C4 2018-10-07 08:48:01 21 38 19.1
003939C4 2018-10-07 07:42:51 21 38 19.2
003939C4 2018-10-07 06:37:43 21 38 19.1
003939C4 2018-10-07 05:32:35 21 38 19.3
003939C4 2018-10-07 04:27:24 21 38 19.6
003939C4 2018-10-07 03:22:14 21 38 19.1
003939C4 2018-10-07 02:17:02 21 39 19
003939C4 2018-10-07 01:11:51 21 39 19
003939C4 2018-10-07 00:06:40 21 39 19
003939C4 2018-10-06 23:01:33 21.1 39 19.1
003939C4 2018-10-06 21:56:20 21 39 19
003939C4 2018-10-06 20:51:11 21.1 39 18.6
003939C4 2018-10-06 19:46:02 21.1 39 18.1
003939C4 2018-10-06 18:40:53 21.1 39 18.1
003939C4 2018-10-06 17:35:44 21.1 39 18.2
003939C4 2018-10-06 16:30:36 21.1 39 18.4
003939C4 2018-10-06 15:25:26 21.2 39 18.4
003939C4 2018-10-06 14:20:17 21.2 39 18.1
003939C4 2018-10-06 13:15:06 21.2 39 18.1
003939C4 2018-10-06 12:09:57 21.2 39 18.3
003939C4 2018-10-06 11:04:48 21.2 39 18.3
003939C4 2018-10-06 09:59:38 21.2 39 18
003939C4 2018-10-06 08:54:27 21.2 39 17.4
003939C4 2018-10-06 07:49:17 21.3 39 17.2
003939C4 2018-10-06 06:44:06 21.3 40 17.1
003939C4 2018-10-06 05:38:56 21.3 40 17.1
003939C4 2018-10-06 04:33:46 21.3 40 17.1
003939C4 2018-10-06 03:28:34 21.4 40 16.8
003939C4 2018-10-06 02:23:24 21.4 40 16.6
003939C4 2018-10-06 01:18:14 21.4 40 16.1
003939C4 2018-10-06 00:13:04 21.5 41 15.9
003939C4 2018-10-05 23:07:55 21.5 41 15.9
003939C4 2018-10-05 22:02:44 21.5 41 15.8
003939C4 2018-10-05 20:57:34 21.5 41 15.9
003939C4 2018-10-05 19:52:24 21.6 41 15.7
003939C4 2018-10-05 18:47:16 21.7 41 15.6
003939C4 2018-10-05 17:42:05 21.7 41 15.6
003939C4 2018-10-05 16:36:52 21.6 40 15.5
003939C4 2018-10-05 15:31:42 21.5 40 15.4
003939C4 2018-10-05 14:26:31 21.5 39 15.4
003939C4 2018-10-05 13:21:22 21.4 39 14.9
003939C4 2018-10-05 12:16:12 21.3 38 14.9
003939C4 2018-10-05 11:11:06 21.2 35 14.8
003939C4 2018-10-05 10:05:57 21 34 14.8
003939C4 2018-10-05 09:00:48 20.9 33 14.3
003939C4 2018-10-05 07:55:37 20.8 30 14.1
003939C4 2018-10-05 06:50:31 20.8 29 14.1
003939C4 2018-10-05 05:45:21 20.8 29 14.1
003939C4 2018-10-05 04:40:15 20.8 29 13.4
003939C4 2018-10-05 03:35:09 20.8 29 12.6
003939C4 2018-10-05 02:29:56 20.9 29 12.4
003939C4 2018-10-05 01:24:48 21 29 12.1
003939C4 2018-10-05 00:19:42 21 30 12.1
003939C4 2018-10-04 23:14:35 21 30 16
003939C4 2018-10-04 22:09:25 21 30 15.9
003939C4 2018-10-04 21:04:17 21.1 29 16
003939C4 2018-10-04 19:59:11 21 29 15.9
003939C4 2018-10-04 18:54:01 21 29 15.9
003939C4 2018-10-04 17:48:53 21 29 15.8
003939C4 2018-10-04 16:43:45 20.9 29 15.8
003939C4 2018-10-04 15:38:39 20.8 29 15.8
003939C4 2018-10-04 14:33:31 20.8 30 15.6
003939C4 2018-10-04 13:28:21 20.8 30 15.6
003939C4 2018-10-04 11:18:04 20.6 32 15.6
003939C4 2018-10-04 10:12:56 20.4 33 15.4
003939C4 2018-10-04 09:07:50 20.4 33 15.5
003939C4 2018-10-04 08:02:39 20.4 34 15.6
003939C4 2018-10-04 06:57:30 20.4 36 15.6
003939C4 2018-10-04 05:52:22 20.4 36 15.8
003939C4 2018-10-04 03:42:01 20.4 37 15.9
003939C4 2018-10-04 02:36:51 20.4 38 16.1
003939C4 2018-10-04 01:31:42 20.5 38 16.3
003939C4 2018-10-04 00:26:34 20.6 39 16.5
003939C4 2018-10-03 23:21:22 20.6 39 16.7
003939C4 2018-10-03 22:16:14 20.6 40 16.9
003939C4 2018-10-03 21:11:05 20.6 40 17.1
003939C4 2018-10-03 20:05:53 20.6 40 17.3
003939C4 2018-10-03 19:00:43 20.6 41 17.6
003939C4 2018-10-03 16:50:22 20.7 42 10.1
003939C4 2018-10-03 14:40:07 20.6 43 10.3
003939C4 2018-10-03 13:34:54 20.6 42 10.3
003939C4 2018-10-03 12:29:46 20.6 40 10.5
003939C4 2018-10-03 08:09:03 20.2 38 10.8
003939C4 2018-10-03 07:03:56 20.2 40 11
003939C4 2018-10-03 02:43:14 20.4 40 11.4
003939C4 2018-10-03 01:37:58 20.4 41 11.9
003939C4 2018-10-02 22:22:15 20.4 40 12.3
003939C4 2018-10-02 21:17:01 20.4 40 13
003939C4 2018-10-02 20:11:40 20.5 40 13.5
003939C4 2018-10-02 19:06:27 20.6 40 14.9
003939C4 2018-10-02 16:55:52 20.8 42 15.5
003939C4 2018-10-02 15:50:29 20.2 50 0